Temperature
18 18 18 18 17 17 17 17 17 17 17 17 17 17 17 17 17 17 16 16 16 17 17 17 17 17 17 17 16 16 16 16 16 15 16 16 16 16 16 16 15 15 15
18 18 18 18 17 17 17 17 17 17 16 16 16 16 16 16 16 16 16 16 16 16 16 16 16 16 16 16 16 16 16 16 16 15 15 15 15 15 15 15 15 15 15
18 18 18 17 17 17 17 17 17 16 16 16 16 16 16 16 16 16 16 16 16 16 16 16 16 16 16 16 16 16 15 15 15 15 15 15 15 15 15 15 15 15 15
18 17 17 17 17 17 17 17 16 16 16 16 16 16 16 16 16 16 16 16 16 16 16 16 16 16 16 15 15 15 15 15 15 15 15 15 15 15 15 15 15 15 15
17 17 17 17 17 17 16 16 16 16 16 16 16 16 16 16 15 15 15 15 15 15 15 15 15 15 15 15 15 15 15 15 15 15 14 14 14 14 14 14 14 14 14
17 17 17 17 16 16 16 16 16 16 16 16 16 15 15 15 15 15 15 15 15 15 15 15 15 15 15 15 15 14 14 14 14 14 14 14 14 14 14 14 14 14 14
17 17 17 16 16 16 16 16 16 16 15 15 15 15 15 15 15 15 15 15 15 15 15 15 15 15 14 14 14 14 14 14 14 14 14 14 14 14 14 14 14 14 14
16 16 16 16 16 16 16 15 15 15 15 15 15 15 15 15 14 14 14 14 14 14 14 14 14 14 14 14 14 14 14 14 14 14 14 14 14 14 14 14 14 13 13
16 16 16 16 15 15 15 15 15 15 15 15 15 15 14 14 14 14 14 14 14 14 14 14 14 14 14 14 14 14 14 14 14 13 13 13 13 13 13 13 13 13 13
16 16 16 15 15 15 15 15 15 15 15 15 14 14 14 14 14 14 14 14 14 14 14 14 14 13 13 13 13 13 13 13 13 13 13 13 13 13 13 13 13 13 12
16 16 15 15 15 15 15 14 14 14 14 14 14 14 14 14 14 14 13 13 13 13 13 13 13 13 13 13 13 13 13 13 13 13 13 13 13 13 13 13 13 12 12
15 15 15 15 15 15 14 14 14 14 14 14 14 14 14 13 13 13 13 13 13 13 13 13 13 13 13 13 13 13 13 13 12 13 13 13 12 12 13 12 12 12 12
15 15 15 15 14 14 14 14 14 14 13 13 13 13 13 13 13 13 13 13 13 13 13 13 13 13 13 13 13 13 12 12 12 12 12 12 12 12 12 12 12 12 12
15 15 14 14 14 14 14 14 14 13 13 13 13 13 13 13 13 13 13 13 13 13 13 13 13 12 12 12 12 12 12 12 12 12 12 11 11 11 11 11 11 11 11
14 14 14 14 13 13 13 13 13 13 13 13 13 13 13 13 13 12 12 13 12 12 12 12 12 12 12 12 12 12 12 12 11 11 11 11 11 11 11 11 11 11 11
14 14 13 13 13 13 13 13 13 13 13 13 13 13 13 13 12 12 12 12 12 12 12 12 12 12 12 12 12 12 12 11 11 11 11 11 10 10 10 10 10 10 10
14 13 13 13 13 13 12 12 13 13 13 13 12 12 13 12 12 12 12 12 12 12 12 12 11 11 11 11 11 11 11 11 11 11 11 10 10 10 10 10 10 10 10
13 13 13 13 12 12 12 12 12 12 12 12 12 12 12 12 12 12 12 12 12 12 11 11 11 11 11 11 11 11 11 11 11 10 10 10 10 10 10 10 10 9 10
13 13 13 13 12 12 12 12 12 12 12 12 12 12 12 12 12 12 12 12 12 11 11 11 11 11 11 11 11 11 11 10 10 10 10 10 10 10 10 10 9 9 9
13 13 13 13 12 12 12 12 12 12 12 12 12 12 12 12 12 12 11 11 11 11 11 11 11 11 11 11 11 10 10 10 10 10 10 10 10 10 10 9 9 9 9
13 13 13 12 12 12 12 12 12 12 12 12 12 12 12 11 11 11 11 11 11 11 11 11 11 10 10 10 10 10 10 10 10 10 10 10 9 9 9 9 9 9 9
13 13 13 12 12 12 12 12 12 12 12 11 11 11 11 11 11 11 11 11 11 11 10 10 10 10 10 10 10 10 10 10 10 10 10 9 9 9 9 9 9 9 9
13 13 12 12 12 12 12 12 11 11 11 11 11 11 11 11 11 11 11 11 10 10 10 10 10 10 10 10 10 10 10 9 9 9 9 9 9 9 9 9 9 9 9
12 12 12 12 12 12 12 12 11 11 11 11 11 11 11 11 11 10 10 10 10 10 10 10 10 9 9 9 9 9 9 9 9 9 9 9 9 9 9 9 9 9 8
12 12 12 12 12 12 12 11 11 11 11 11 11 11 10 10 10 10 10 10 10 10 10 10 9 9 9 9 9 9 9 9 9 9 9 9 9 9 9 9 8 8 8
12 12 12 12 12 11 11 11 11 11 11 10 10 10 10 10 10 10 10 10 10 10 10 9 9 9 9 9 9 9 9 9 9 9 9 9 8 8 8 8 8 8 8
Wind_Speed
5 5 5 4 4 4 3 3 3 2 2 2 2 2 2 2 2 1 1 1 2 2 2 2 2 2 1 1 1 1 2 3 4 3 2 1 0 1 1 1 2 3 4
5 5 5 4 4 4 3 3 3 2 1 2 2 2 2 2 2 1 2 2 2 2 2 2 3 2 2 1 1 2 2 2 4 3 2 1 1 1 1 1 1 2 2
5 5 5 4 4 4 3 2 2 2 2 1 1 2 2 2 2 2 2 2 2 3 3 3 3 2 2 2 2 2 2 2 2 3 3 2 1 1 0 0 0 0 1
4 5 5 5 5 4 3 2 2 2 2 2 2 2 2 2 2 2 3 3 3 3 3 3 3 3 4 3 3 3 2 1 2 2 2 2 2 1 1 1 1 1 1
4 4 5 4 3 3 3 2 2 2 2 2 2 2 2 2 3 3 3 3 3 3 3 3 3 3 4 3 3 3 3 2 2 2 2 2 2 1 2 2 2 1 1
3 3 3 3 3 3 3 3 2 2 2 2 2 2 2 2 3 2 2 3 2 2 3 3 3 2 3 3 4 4 5 5 4 4 3 4 4 3 3 3 2 1 2
2 2 3 3 3 2 2 2 3 3 2 2 2 2 2 3 3 2 2 1 2 2 3 3 3 3 2 2 3 3 4 5 6 6 6 6 6 5 4 3 3 3 3
2 2 2 3 3 2 1 1 2 2 2 2 2 2 2 3 2 2 2 1 1 2 2 2 2 2 2 1 1 1 2 2 4 4 5 6 5 5 6 6 5 2 1
2 2 2 2 3 2 2 2 2 1 2 2 2 2 3 3 2 2 1 1 1 2 2 2 2 2 3 1 1 1 2 2 2 2 3 3 4 5 5 3 3 2 1
3 3 2 2 3 3 3 2 2 1 2 2 2 3 3 3 3 2 2 1 1 1 2 2 2 2 2 1 1 2 2 2 1 2 2 2 0 2 4 5 5 4 2
3 2 1 2 3 3 2 2 1 1 1 1 2 3 3 3 3 2 3 2 2 1 1 2 2 3 2 1 1 2 3 2 1 0 1 1 1 0 1 2 3 4 3
2 1 1 1 2 2 2 2 1 1 1 2 2 2 2 3 2 2 3 3 3 2 2 2 2 3 2 1 1 1 0 1 1 1 1 1 1 1 1 1 1 2 3
2 1 1 1 1 1 2 2 1 1 1 1 1 2 3 3 2 2 2 3 2 2 2 2 2 2 1 1 1 0 1 1 1 1 0 2 2 1 0 0 1 1 1
2 1 0 0 1 2 1 2 2 2 2 2 2 2 2 2 2 2 2 2 2 1 1 1 1 1 1 1 1 0 1 1 2 1 1 1 2 1 1 0 0 1 1
2 1 1 0 1 1 1 1 2 3 4 4 4 3 3 3 4 3 2 1 2 2 0 1 1 1 1 1 1 1 0 0 1 1 1 0 1 1 1 1 0 0 1
2 2 1 1 1 1 1 2 2 2 3 4 5 5 4 5 4 3 2 2 3 3 3 1 0 1 1 2 2 1 1 1 2 2 1 1 1 1 1 1 0 1 1
3 2 2 1 1 1 0 0 1 3 3 2 3 3 3 3 2 2 2 2 2 5 3 1 1 2 2 2 2 2 2 2 1 1 2 2 1 1 1 1 1 1 2
3 3 2 2 2 2 1 1 2 1 1 2 3 4 3 2 3 3 3 3 1 1 1 2 2 3 2 2 2 2 2 1 1 1 1 2 2 2 2 2 2 2 2
3 2 2 2 2 2 2 2 1 1 1 0 2 3 2 1 2 1 4 2 2 2 2 2 2 3 2 2 2 2 1 1 1 1 2 2 2 2 2 2 2 3 2
3 3 2 2 2 1 1 1 1 1 1 0 1 1 1 3 2 1 1 1 1 2 2 2 2 2 2 2 1 1 1 1 1 1 1 1 1 1 2 2 2 2 3
2 2 1 1 1 2 1 1 1 1 1 1 1 1 2 2 1 1 1 1 1 2 2 2 2 2 2 2 2 2 2 1 1 1 1 2 2 2 2 2 2 2 2
2 2 1 1 1 1 1 1 1 1 2 1 1 0 1 1 1 1 1 1 2 2 1 1 1 1 1 2 2 2 2 1 1 1 1 2 2 2 2 2 2 2 2
2 2 1 1 1 1 1 1 1 1 1 1 0 0 1 1 1 1 2 2 2 2 1 1 1 0 1 0 2 2 2 2 2 2 2 1 1 2 2 2 3 2 2
2 2 1 2 1 1 1 2 2 1 1 1 1 1 1 1 1 2 2 1 1 1 1 1 1 1 1 1 2 2 3 3 3 3 2 2 1 1 2 2 2 3 2
2 2 2 2 2 1 1 1 1 1 1 1 1 1 1 1 1 1 1 1 1 1 1 1 1 1 2 2 2 2 2 3 3 3 2 1 1 1 1 1 1 1 1
2 2 2 2 2 2 1 1 1 1 1 1 0 1 1 1 1 1 0 0 0 1 1 1 1 1 1 1 2 2 2 2 3 3 2 1 1 0 0 0 1 1 1
Wind_Direction
191 192 192 194 197 195 202 215 221 223 221 218 221 224 240 253 244 219 243 237 242 256 256 233 247 241 236 233 196 185 191 180 212 258 259 266 236 272 326 252 215 210 218
189 185 190 189 188 198 212 225 220 216 213 216 218 233 242 252 250 220 245 258 244 252 256 255 261 249 242 235 190 194 209 199 188 222 256 273 247 221 222 215 225 217 219
180 177 183 187 186 195 205 214 209 203 217 222 209 225 245 257 250 244 240 247 249 254 249 246 258 241 241 229 199 199 214 216 184 193 235 243 248 226 212 269 315 334 223
176 175 185 195 196 196 196 196 193 194 196 210 216 225 225 232 239 250 256 256 257 260 255 248 250 233 224 217 217 205 188 182 182 193 225 242 235 232 163 199 279 297 261
177 181 194 200 194 186 188 194 202 208 213 211 218 243 242 234 246 250 253 261 257 267 273 261 256 249 227 219 221 198 178 184 195 199 220 237 240 205 211 215 221 250 271
165 179 178 174 181 185 197 200 203 216 225 226 229 235 253 265 273 254 244 254 257 263 273 277 277 274 252 236 223 210 188 193 204 209 224 223 231 220 213 203 200 197 265
155 170 166 163 167 178 199 203 213 219 227 255 253 241 258 272 288 281 271 234 240 252 259 266 282 284 268 249 239 237 233 227 216 208 220 231 223 212 196 202 206 203 233
160 159 167 169 172 175 166 213 229 225 230 242 253 242 251 272 275 282 281 246 245 254 256 253 259 279 276 230 203 238 254 248 233 222 218 227 222 207 192 194 198 204 267
164 180 184 181 183 188 201 228 229 236 252 250 249 240 242 265 262 256 236 215 249 278 279 275 262 256 269 232 170 238 293 292 278 260 230 225 204 188 177 152 150 152 251
195 204 201 188 187 195 206 220 230 223 255 268 268 255 246 259 266 239 193 188 226 281 308 309 299 279 274 238 183 190 236 280 317 353 12 21 137 174 167 175 180 179 200
195 188 200 216 204 197 203 214 215 215 264 285 274 270 262 264 269 225 187 184 207 240 273 293 304 312 300 260 206 202 222 243 271 354 352 351 18 85 192 192 186 183 186
157 162 220 257 232 203 193 224 220 196 234 294 298 293 288 284 266 234 189 191 193 200 242 270 293 302 311 307 265 242 199 84 95 69 39 325 283 266 249 223 197 189 194
134 166 246 305 305 237 204 218 233 221 215 255 275 282 294 296 291 260 214 215 201 200 235 254 290 298 303 306 289 284 98 101 118 129 262 287 281 264 273 358 18 32 19
154 196 218 301 338 327 264 220 213 217 215 229 243 253 268 284 293 292 270 244 241 246 281 298 322 19 47 320 319 357 139 163 167 194 243 298 327 359 8 27 351 351 349
174 187 218 247 282 309 295 257 232 226 208 204 219 222 223 252 260 240 204 210 221 231 187 55 47 26 5 331 319 294 230 184 198 247 242 308 334 340 327 329 340 333 289
180 199 202 207 246 267 280 327 323 270 252 233 222 215 231 233 239 221 205 204 184 150 124 118 198 243 253 256 250 251 230 223 228 216 216 225 242 255 286 314 322 223 241
187 206 207 214 233 260 286 229 317 338 343 313 277 245 233 241 238 225 200 167 143 132 126 186 234 249 258 258 248 229 236 237 221 199 204 222 229 234 232 251 264 263 257
190 202 202 218 222 222 238 232 216 216 326 331 316 283 256 230 221 204 159 121 98 124 172 210 238 251 256 256 249 242 241 240 223 223 217 219 216 221 228 242 242 243 251
193 201 205 213 220 225 231 231 230 201 191 319 350 340 342 48 69 116 140 147 182 217 227 231 238 242 244 250 255 251 226 214 219 220 226 229 222 221 235 242 242 237 237
204 208 197 202 221 234 240 234 216 200 172 172 269 282 23 62 56 51 131 161 185 224 233 235 243 239 228 224 223 214 220 226 224 226 238 240 245 230 230 235 233 233 238
197 199 203 216 223 223 227 233 208 181 171 199 242 240 167 145 171 195 205 205 211 225 237 242 243 237 218 201 203 204 203 225 235 237 241 239 237 244 240 231 232 227 226
181 191 201 210 209 216 219 204 174 167 184 196 256 280 187 159 173 200 234 251 242 236 225 212 226 241 226 209 193 182 188 209 228 231 247 250 238 235 236 222 218 216 206
183 186 188 192 197 194 152 134 146 157 176 182 174 146 186 233 234 231 239 246 237 220 193 166 161 276 306 252 180 173 188 215 227 219 222 245 253 238 226 219 213 212 215
186 189 183 174 175 179 160 152 157 157 152 157 157 168 202 237 246 241 238 240 224 213 195 173 176 197 199 185 184 181 196 208 203 200 201 214 240 241 232 224 221 213 211
188 191 179 170 170 180 169 141 143 157 164 173 172 170 188 224 261 273 266 223 201 209 206 192 182 192 197 202 203 206 206 193 185 188 190 190 215 236 228 217 225 219 210
186 185 178 177 177 174 167 165 168 170 179 180 160 171 198 212 232 256 264 229 214 227 215 203 223 217 236 243 231 206 191 185 184 187 181 176 182 203 173 222 243 233 209
Height
1510 1510 1511 1512 1512 1512 1513 1513 1513 1512 1512 1512 1511 1511 1511 1511 1510 1510 1510 1510 1510 1509 1509 1509 1509 1509 1509 1509 1509 1509 1509 1510 1509 1509 1510 1510 1510 1510 1510 1509 1509 1509 1509
1507 1508 1508 1509 1509 1510 1510 1510 1510 1510 1509 1509 1509 1508 1508 1507 1507 1506 1506 1506 1506 1506 1506 1506 1505 1505 1505 1505 1505 1505 1506 1506 1506 1505 1506 1507 1507 1508 1508 1507 1507 1507 1507
1505 1506 1506 1506 1506 1506 1507 1507 1507 1507 1506 1506 1506 1505 1505 1504 1504 1503 1503 1503 1502 1502 1502 1502 1501 1501 1501 1501 1501 1502 1502 1502 1503 1503 1503 1504 1504 1505 1505 1505 1505 1505 1504
1503 1503 1503 1503 1503 1504 1504 1504 1504 1504 1504 1503 1503 1502 1501 1500 1500 1500 1500 1499 1498 1498 1498 1498 1498 1498 1497 1497 1498 1498 1498 1499 1499 1500 1500 1501 1501 1502 1502 1502 1502 1502 1502
1500 1500 1501 1501 1501 1501 1501 1501 1502 1501 1501 1500 1500 1499 1498 1498 1497 1496 1496 1495 1495 1495 1495 1495 1494 1494 1494 1494 1494 1494 1494 1495 1496 1496 1497 1497 1497 1498 1498 1499 1499 1499 1499
1498 1498 1498 1499 1499 1499 1499 1499 1499 1498 1498 1497 1496 1496 1495 1494 1493 1493 1493 1492 1492 1492 1491 1491 1491 1491 1490 1490 1491 1491 1491 1492 1492 1493 1493 1493 1493 1495 1495 1496 1496 1496 1495
1496 1496 1496 1496 1496 1496 1496 1496 1496 1495 1495 1494 1493 1493 1492 1491 1491 1490 1490 1490 1489 1488 1488 1488 1488 1487 1487 1487 1487 1488 1488 1489 1489 1490 1490 1489 1490 1491 1492 1493 1493 1493 1493
1494 1494 1494 1494 1493 1494 1493 1493 1493 1492 1492 1491 1490 1490 1489 1489 1488 1487 1487 1486 1486 1486 1485 1485 1485 1484 1484 1484 1484 1484 1485 1486 1487 1487 1487 1487 1488 1488 1489 1490 1490 1490 1491
1492 1492 1491 1491 1491 1491 1491 1490 1490 1489 1489 1488 1488 1487 1486 1486 1485 1485 1484 1484 1483 1483 1483 1483 1482 1482 1482 1482 1482 1482 1482 1483 1484 1485 1485 1485 1485 1486 1486 1487 1487 1487 1487
1490 1490 1490 1489 1489 1489 1488 1488 1487 1487 1486 1485 1485 1484 1484 1483 1483 1482 1482 1481 1481 1481 1481 1481 1481 1480 1480 1480 1480 1480 1479 1480 1481 1481 1481 1482 1482 1482 1483 1484 1484 1484 1484
1489 1489 1488 1488 1487 1487 1486 1485 1485 1484 1483 1482 1482 1481 1481 1480 1480 1480 1479 1479 1479 1479 1479 1478 1478 1478 1478 1478 1478 1478 1478 1478 1478 1478 1478 1478 1479 1479 1480 1480 1481 1481 1482
1487 1487 1487 1486 1485 1484 1483 1483 1482 1481 1480 1479 1479 1478 1478 1478 1478 1477 1477 1477 1477 1477 1477 1477 1477 1477 1476 1476 1476 1476 1476 1476 1476 1475 1475 1475 1475 1476 1476 1477 1478 1479 1479
1485 1485 1484 1484 1483 1482 1481 1480 1479 1478 1477 1477 1477 1476 1476 1476 1476 1476 1475 1475 1475 1475 1475 1476 1475 1475 1475 1475 1475 1475 1475 1474 1474 1473 1472 1472 1473 1473 1474 1475 1475 1476 1476
1483 1483 1482 1482 1480 1479 1478 1477 1476 1475 1475 1475 1474 1474 1474 1474 1474 1474 1473 1473 1473 1473 1474 1474 1474 1474 1473 1473 1473 1473 1473 1473 1472 1471 1471 1471 1471 1471 1471 1472 1472 1473 1473
1481 1480 1480 1479 1478 1476 1475 1474 1474 1474 1474 1473 1473 1473 1472 1472 1472 1472 1471 1471 1471 1471 1472 1472 1472 1472 1471 1471 1471 1471 1471 1471 1470 1470 1470 1470 1470 1470 1469 1470 1470 1470 1470
1479 1478 1477 1476 1475 1474 1473 1472 1471 1471 1471 1471 1471 1471 1470 1470 1470 1470 1469 1469 1469 1469 1469 1469 1469 1469 1469 1469 1469 1469 1469 1468 1468 1468 1468 1468 1468 1468 1467 1468 1468 1468 1468
1477 1476 1476 1475 1474 1472 1471 1469 1469 1469 1469 1469 1469 1469 1468 1468 1468 1468 1468 1468 1468 1467 1467 1467 1467 1467 1467 1467 1467 1467 1466 1466 1466 1466 1466 1466 1466 1465 1465 1465 1466 1466 1465
1475 1475 1474 1473 1472 1471 1469 1468 1467 1466 1466 1466 1466 1466 1466 1466 1466 1466 1466 1466 1465 1465 1465 1465 1465 1465 1465 1465 1464 1464 1464 1463 1463 1463 1463 1463 1463 1463 1463 1463 1463 1463 1462
1473 1473 1472 1471 1471 1470 1468 1467 1466 1465 1464 1464 1464 1465 1465 1464 1464 1464 1463 1463 1463 1463 1463 1463 1463 1463 1463 1463 1462 1462 1461 1460 1461 1461 1461 1461 1461 1461 1460 1460 1460 1460 1460
1471 1471 1471 1470 1469 1468 1467 1466 1465 1463 1463 1463 1463 1463 1462 1462 1462 1462 1462 1461 1461 1461 1461 1461 1461 1461 1460 1460 1460 1460 1460 1459 1459 1459 1458 1458 1458 1458 1457 1457 1457 1457 1457
1469 1469 1469 1468 1467 1466 1465 1464 1463 1462 1461 1461 1461 1461 1461 1461 1461 1461 1461 1460 1460 1460 1459 1459 1459 1458 1458 1458 1458 1458 1458 1457 1457 1456 1456 1455 1455 1455 1455 1454 1454 1454 1454
1467 1467 1467 1466 1465 1465 1464 1463 1462 1461 1461 1461 1460 1461 1461 1460 1460 1460 1459 1459 1459 1459 1458 1458 1458 1457 1456 1456 1456 1456 1455 1455 1455 1454 1453 1453 1452 1452 1452 1451 1451 1451 1451
1465 1465 1465 1464 1464 1464 1463 1462 1461 1461 1460 1460 1460 1460 1459 1459 1459 1459 1458 1458 1458 1458 1457 1457 1456 1456 1455 1455 1455 1454 1454 1453 1453 1453 1452 1451 1450 1449 1449 1448 1448 1448 1448
1463 1463 1463 1462 1462 1462 1461 1460 1460 1460 1459 1459 1458 1458 1458 1458 1458 1457 1457 1457 1456 1456 1455 1455 1454 1454 1453 1453 1453 1452 1452 1452 1451 1450 1450 1449 1447 1446 1446 1446 1446 1446 1446
1461 1461 1461 1461 1460 1460 1460 1459 1459 1458 1458 1457 1457 1456 1457 1457 1456 1456 1455 1455 1455 1454 1453 1453 1453 1452 1451 1451 1451 1450 1450 1449 1449 1448 1447 1446 1445 1444 1444 1443 1443 1443 1443
1459 1459 1459 1459 1459 1458 1458 1457 1457 1456 1456 1455 1455 1455 1455 1455 1454 1454 1453 1453 1452 1452 1451 1450 1450 1449 1449 1448 1448 1448 1448 1447 1446 1446 1445 1445 1444 1443 1442 1442 1442 1442 1441